User: anonymous   Login
Location: Unspecified
(0.0000°N, 0.0000°E)
Time: 18:21:49
(UTC+00:00)
Language:

ISS - Orbit

View from above orbital plane
View from above orbital plane
View from above satellite
View from above satellite

Ground track
Ground track

The orbit data is extracted from the following two-line orbital elements,

1 25544U 98067A   16151.52715967  .00016717  00000-0  10270-3 0  9036
2 25544  51.6386 146.1358 0001493 130.6539 229.4744 15.54691068  2237
Epoch (UTC): 30 May 2016 12:39:06
Eccentricity: 0.0001493
inclination: 51.6386°
perigee height: 402 km
apogee height: 404 km
right ascension of ascending node: 146.1358°
argument of perigee: 130.6539°
revolutions per day: 15.54691068
mean anomaly at epoch: 229.4744°
orbit number at epoch: 223

The dashed part of the orbit path shows where the satellite is in the earth's shadow,  

DLR